Wind_Speed
16 17 18 20 22 22 21 19 17 16 16 16 16 15 14 12 9 9 9 8 4 2 2 4 10 14 15 16 15 16 7 10 8 7 11 13 12 13 14 7 7 6 8 9 10
16 18 19 20 20 22 24 25 23 21 19 19 19 18 16 16 13 10 11 11 7 6 2 2 7 12 13 11 14 9 9 5 10 5 7 15 8 9 8 5 7 8 8 8 11
17 18 19 20 21 22 23 24 27 26 24 21 21 22 19 19 18 17 12 12 11 8 4 1 2 8 10 9 6 5 10 10 6 8 11 13 10 9 7 7 4 6 3 7 13
15 16 18 19 20 21 23 24 24 27 29 27 24 23 23 20 14 21 17 14 12 10 8 4 1 3 6 6 8 7 3 11 7 10 11 13 11 10 6 7 7 6 9 10 13
13 14 14 16 18 20 21 22 24 25 27 30 30 26 25 25 22 20 19 15 14 12 11 8 4 1 2 4 5 5 3 9 13 7 11 12 10 7 8 6 5 5 7 12 15
14 14 15 15 15 15 17 21 22 23 26 27 30 32 29 28 28 24 20 16 15 13 13 11 10 7 3 3 2 3 5 10 11 7 8 9 8 6 3 4 6 5 7 12 17
14 14 15 15 15 16 16 16 18 21 23 26 28 31 35 31 31 28 24 18 18 16 15 14 14 12 7 3 3 2 6 10 11 11 8 9 7 4 2 4 10 7 7 14 17
15 15 15 15 16 16 17 16 16 16 20 22 25 30 34 36 35 32 30 26 21 18 19 18 17 16 12 9 3 3 8 14 10 11 8 8 9 6 6 5 7 10 8 12 14
16 17 16 15 15 16 16 17 16 15 16 19 22 25 28 33 37 37 33 29 27 23 20 20 20 17 11 10 8 9 9 5 9 11 7 6 5 4 3 4 5 7 9 12 14
17 17 17 16 15 15 15 15 17 16 16 16 20 20 24 31 36 40 38 32 30 27 24 22 21 17 17 15 16 11 9 7 8 8 9 7 5 6 6 3 5 4 5 11 15
17 16 17 16 15 14 14 13 14 17 19 19 11 24 12 27 35 37 41 38 31 30 29 27 22 25 21 19 13 8 10 8 7 7 7 8 7 9 7 9 11 7 4 7 13
18 17 16 15 15 13 12 12 13 17 17 20 22 20 22 17 28 36 39 40 39 33 29 25 33 26 22 20 17 13 12 11 7 7 7 7 8 10 13 8 12 10 10 9 15
19 18 17 15 14 14 12 12 12 13 16 18 20 20 23 26 25 23 37 38 33 36 36 39 33 27 24 23 20 19 18 13 8 7 9 10 13 11 12 11 16 15 13 14 15
20 19 17 16 15 13 12 11 9 9 7 11 19 22 22 24 27 26 28 28 31 39 40 40 34 29 29 28 23 24 19 13 11 9 12 6 10 7 10 10 11 16 15 17 18
22 20 17 14 14 13 12 10 7 4 5 7 11 19 19 21 17 29 27 26 31 32 40 44 39 34 32 32 26 25 16 17 14 14 14 14 12 15 10 10 13 16 13 13 15
20 20 16 13 12 12 11 9 5 6 8 4 8 12 12 19 21 19 25 29 24 27 30 41 33 36 34 30 29 24 16 16 15 18 21 18 15 14 15 12 12 15 8 8 11
19 19 17 12 12 10 9 7 5 12 5 5 8 9 13 13 14 18 20 29 27 27 32 32 36 35 30 34 28 25 22 21 16 17 16 20 19 21 3 6 4 11 12 12 13
20 19 16 12 9 8 7 9 10 4 8 5 6 9 13 12 12 16 18 25 28 27 30 36 35 36 30 38 37 31 31 26 18 14 19 25 15 22 17 16 13 12 11 11 21
20 19 15 13 8 5 10 12 6 6 6 5 5 12 12 12 10 12 17 20 19 20 28 32 36 37 33 33 35 32 38 33 30 26 17 21 22 20 21 18 14 13 10 9 9
17 17 13 10 6 3 8 12 7 8 4 6 8 8 13 11 11 15 14 10 12 23 29 14 28 22 28 27 31 37 27 30 32 22 23 24 25 18 4 7 8 13 10 13 12
14 10 11 8 4 1 8 10 7 7 8 4 7 5 8 7 9 11 11 7 15 15 27 18 19 24 20 30 30 27 28 30 31 36 19 17 26 22 22 17 12 16 10 12 11
11 3 9 7 2 4 6 7 10 7 7 6 6 6 5 4 6 7 11 7 15 16 14 21 21 19 26 19 28 30 31 31 29 25 27 27 23 14 12 11 9 20 11 9 12
9 6 5 4 3 5 5 4 5 5 7 7 7 6 5 5 3 7 8 13 16 10 10 11 20 23 19 18 19 24 27 33 32 29 29 22 28 24 19 16 9 9 16 15 14
10 3 6 7 9 8 7 6 6 7 6 7 7 6 6 6 3 7 8 11 14 16 14 19 9 18 19 28 22 25 24 27 29 31 31 34 22 19 16 16 15 12 27 19 18
12 6 8 6 6 5 7 7 5 6 6 7 7 8 9 7 7 6 7 6 7 11 11 7 8 7 5 3 7 16 24 26 26 31 30 26 29 29 29 26 24 23 21 23 21
10 7 10 4 6 5 6 5 7 6 3 6 7 9 9 7 8 9 7 6 7 3 4 3 6 5 8 5 6 9 18 20 21 23 24 27 26 19 20 21 19 28 32 27 22
14 11 9 7 5 2 6 14 11 8 5 2 10 6 8 11 9 7 6 6 6 6 5 6 7 8 13 9 7 13 17 17 20 21 23 25 20 19 14 20 24 25 29 28 26
Wind_Direction
260 258 255 251 249 249 248 245 241 234 228 225 229 227 227 229 220 219 224 231 220 231 349 40 41 34 48 61 75 82 76 102 96 126 162 175 166 166 163 169 165 148 128 160 167
266 262 258 256 252 248 245 244 245 241 234 227 224 227 232 230 228 227 224 228 219 223 258 22 39 32 50 69 81 81 80 99 67 83 160 157 155 164 176 166 172 151 125 141 164
272 267 264 258 255 252 249 244 241 242 242 234 227 224 226 232 238 240 233 234 226 219 226 272 26 34 50 65 77 70 72 112 89 59 146 150 151 137 137 155 163 188 167 158 159
277 272 266 262 258 255 251 247 243 239 238 239 235 226 224 224 234 243 241 238 231 222 221 233 233 27 48 59 50 65 69 122 119 91 123 138 138 132 128 147 165 152 157 157 162
286 277 272 268 263 260 255 250 246 241 236 234 235 232 226 228 230 233 237 236 231 219 218 224 208 230 39 358 53 55 91 144 126 108 134 133 130 144 135 131 137 148 156 159 165
299 293 282 275 270 266 260 254 247 240 237 233 231 230 228 227 225 228 231 233 226 216 209 214 218 215 272 333 32 42 83 141 139 148 148 141 151 122 167 169 162 159 171 179 169
308 298 289 283 275 269 265 260 252 244 237 233 229 228 227 222 222 225 225 215 219 210 205 210 220 212 238 301 271 150 129 141 155 156 146 160 167 165 131 106 153 158 163 180 177
315 307 297 286 279 273 265 263 258 249 241 236 229 226 228 220 223 223 223 220 218 215 209 208 215 224 220 234 271 176 189 167 166 167 180 196 132 167 131 123 157 152 160 180 183
322 315 306 297 285 276 269 261 257 251 244 236 234 228 230 220 220 220 222 219 217 215 212 212 213 219 230 229 230 213 209 214 150 179 194 201 96 239 141 152 141 161 168 171 181
317 313 306 301 293 287 279 265 257 249 242 236 232 231 229 223 218 217 218 218 216 217 217 214 214 217 223 215 224 205 213 183 174 194 188 206 220 269 263 242 189 157 177 187 186
318 313 304 299 294 286 286 279 264 253 238 226 221 217 225 221 217 216 215 216 213 217 215 217 210 215 216 218 236 235 226 197 204 194 203 228 229 245 255 243 226 235 226 205 197
318 315 309 301 291 285 280 279 267 256 247 235 232 227 225 221 217 216 213 214 212 212 210 214 219 217 218 222 221 220 219 214 204 212 212 239 252 234 239 251 224 241 239 218 203
322 317 310 306 294 284 278 275 272 265 259 243 231 228 223 221 222 212 212 211 214 212 212 215 221 214 218 216 216 220 222 216 226 206 237 253 263 234 225 242 217 227 220 212 217
325 320 305 302 300 289 276 277 273 263 257 250 233 229 223 220 229 219 215 209 210 214 214 222 218 217 215 218 217 221 219 226 224 233 237 213 268 202 225 224 237 218 216 221 216
329 329 304 295 297 290 275 268 260 224 258 206 209 208 213 204 218 221 218 210 212 214 210 221 217 215 216 218 217 225 223 224 235 238 250 247 250 259 226 223 226 195 204 218 232
331 335 320 301 292 285 265 252 219 201 230 211 195 200 200 206 205 212 209 211 212 214 217 220 221 218 221 219 220 219 223 221 234 243 247 240 253 264 233 228 217 210 228 233 242
331 335 332 310 299 280 253 216 198 235 227 205 198 198 193 199 204 202 200 197 200 199 209 216 218 219 217 217 216 211 213 222 224 228 238 240 241 238 168 187 217 208 237 265 270
333 336 332 322 306 275 221 184 234 244 221 240 217 204 196 191 202 198 198 200 205 215 215 209 211 210 211 213 213 216 217 227 226 229 235 227 232 244 250 254 261 240 254 268 260
325 331 334 330 311 261 183 211 254 227 234 235 233 201 201 190 173 168 184 201 200 204 214 209 217 217 216 216 214 218 224 227 244 249 258 231 233 253 249 251 257 264 269 302 287
321 325 323 327 324 247 205 225 239 228 241 216 217 206 200 194 184 188 179 192 206 203 199 211 209 202 208 207 217 219 223 219 230 240 241 232 246 240 205 232 208 228 274 320 341
321 326 317 305 290 259 230 237 245 246 219 208 224 218 202 187 183 180 187 168 198 201 198 206 208 187 190 203 201 202 214 219 229 225 239 238 241 237 246 252 259 256 289 308 354
322 323 305 290 280 243 243 231 244 240 239 233 232 208 192 183 169 169 167 177 184 177 188 203 212 204 215 205 211 219 213 214 221 223 234 256 248 226 231 228 247 218 280 303 343
329 298 300 275 262 267 270 255 233 222 226 223 221 202 211 203 168 144 156 151 164 158 171 182 212 217 205 202 209 210 213 222 228 234 232 228 238 235 244 255 263 244 270 287 309
357 3 327 308 260 246 269 258 238 235 227 213 215 207 203 200 183 171 157 160 155 169 175 171 193 222 225 221 215 209 216 221 223 227 233 237 243 227 230 247 270 283 236 266 300
9 319 304 270 271 276 262 253 242 228 220 201 217 199 194 194 186 178 174 176 180 173 167 161 192 204 225 185 208 218 216 221 226 231 237 240 242 248 259 263 267 265 268 270 287
20 9 337 305 311 304 236 249 226 225 204 204 197 206 203 204 202 206 197 181 194 210 193 193 204 199 211 215 212 223 222 223 227 229 238 241 247 247 263 255 270 266 264 264 276
18 22 7 350 307 293 256 232 221 212 208 218 194 186 185 184 181 175 194 195 210 189 207 208 206 209 217 200 223 237 226 225 231 233 240 241 250 241 253 258 265 271 269 262 265
Height
3149 3149 3150 3151 3152 3153 3154 3156 3158 3160 3161 3163 3164 3165 3167 3168 3169 3170 3171 3172 3173 3173 3172 3171 3171 3169 3167 3166 3165 3165 3168 3167 3169 3171 3170 3172 3173 3174 3176 3178 3179 3180 3181 3182 3184
3145 3145 3146 3146 3147 3149 3150 3152 3153 3155 3157 3160 3161 3163 3164 3166 3167 3169 3170 3171 3172 3173 3172 3172 3172 3171 3169 3169 3169 3169 3170 3167 3169 3171 3170 3173 3176 3177 3179 3178 3180 3181 3181 3182 3185
3141 3141 3141 3141 3142 3143 3145 3147 3149 3151 3152 3155 3157 3160 3162 3164 3166 3166 3168 3169 3171 3173 3173 3173 3173 3173 3172 3171 3172 3172 3172 3173 3172 3171 3173 3175 3178 3179 3180 3182 3181 3181 3182 3183 3185
3138 3137 3137 3137 3137 3138 3139 3141 3143 3146 3147 3150 3153 3156 3159 3162 3166 3163 3166 3167 3169 3171 3173 3173 3174 3174 3174 3174 3172 3174 3174 3173 3175 3173 3176 3178 3179 3180 3182 3182 3181 3181 3181 3183 3186
3134 3134 3133 3133 3133 3134 3134 3135 3137 3139 3141 3144 3147 3151 3155 3158 3160 3160 3163 3165 3166 3170 3171 3172 3174 3174 3177 3175 3173 3174 3173 3174 3176 3175 3179 3180 3181 3182 3182 3182 3182 3182 3182 3183 3186
3130 3129 3128 3129 3129 3129 3129 3130 3132 3134 3135 3138 3141 3145 3149 3153 3154 3157 3160 3162 3164 3168 3170 3171 3172 3173 3174 3176 3175 3174 3175 3176 3177 3178 3180 3182 3182 3182 3182 3181 3182 3182 3182 3184 3186
3126 3125 3125 3124 3124 3124 3124 3124 3126 3128 3130 3132 3135 3138 3142 3148 3149 3153 3156 3160 3162 3165 3167 3169 3169 3172 3173 3175 3174 3175 3176 3176 3178 3179 3180 3182 3183 3183 3182 3181 3181 3182 3182 3185 3186
3123 3121 3121 3120 3120 3119 3119 3120 3121 3122 3124 3126 3129 3132 3133 3139 3144 3148 3152 3155 3159 3161 3164 3166 3168 3169 3172 3174 3175 3175 3174 3173 3177 3179 3179 3179 3180 3183 3181 3181 3182 3182 3182 3185 3187
3119 3117 3116 3115 3115 3115 3115 3115 3116 3117 3119 3121 3124 3126 3129 3132 3137 3142 3146 3151 3155 3158 3160 3163 3166 3168 3171 3173 3173 3173 3170 3169 3175 3178 3178 3179 3179 3180 3181 3182 3182 3182 3183 3184 3186
3117 3114 3112 3111 3111 3110 3110 3111 3111 3113 3115 3117 3118 3124 3123 3125 3128 3134 3140 3145 3150 3154 3157 3160 3163 3166 3167 3170 3168 3168 3170 3170 3171 3177 3177 3179 3180 3178 3179 3181 3182 3182 3183 3183 3185
3114 3111 3109 3108 3107 3107 3107 3107 3110 3110 3110 3112 3113 3115 3116 3119 3122 3127 3132 3139 3144 3148 3151 3155 3160 3160 3164 3167 3167 3168 3169 3170 3173 3175 3176 3177 3178 3178 3176 3179 3179 3181 3182 3183 3185
3110 3108 3105 3104 3103 3103 3103 3103 3104 3105 3105 3106 3107 3110 3112 3113 3116 3120 3126 3132 3136 3140 3148 3153 3150 3158 3162 3165 3167 3168 3169 3169 3172 3173 3174 3175 3175 3176 3175 3176 3178 3179 3180 3182 3183
3106 3104 3101 3099 3099 3099 3099 3099 3100 3100 3101 3101 3102 3104 3107 3110 3111 3115 3119 3125 3130 3136 3140 3142 3147 3156 3158 3161 3163 3165 3166 3166 3169 3171 3172 3173 3172 3173 3175 3173 3175 3176 3178 3179 3181
3103 3100 3097 3096 3097 3094 3095 3095 3096 3098 3099 3099 3097 3098 3101 3104 3107 3110 3113 3121 3125 3128 3135 3137 3146 3149 3153 3155 3160 3160 3164 3165 3168 3169 3167 3171 3165 3169 3170 3171 3171 3172 3174 3176 3177
3099 3097 3093 3092 3091 3091 3092 3092 3094 3096 3094 3093 3092 3092 3095 3101 3101 3103 3108 3113 3118 3123 3131 3129 3137 3142 3146 3150 3155 3157 3160 3164 3165 3166 3166 3167 3168 3165 3167 3168 3169 3170 3172 3173 3175
3097 3094 3090 3089 3088 3088 3088 3090 3093 3098 3089 3090 3089 3091 3094 3095 3098 3098 3103 3108 3115 3120 3123 3126 3134 3137 3141 3147 3151 3156 3158 3161 3162 3162 3158 3161 3163 3160 3162 3165 3168 3170 3170 3171 3172
3094 3091 3088 3086 3086 3085 3085 3088 3094 3089 3088 3089 3089 3089 3092 3094 3095 3096 3099 3102 3107 3114 3114 3122 3125 3130 3136 3141 3145 3150 3154 3154 3155 3153 3151 3156 3157 3160 3161 3163 3166 3169 3170 3167 3167
3091 3088 3085 3083 3082 3082 3084 3088 3088 3085 3086 3084 3085 3087 3090 3090 3092 3093 3096 3099 3103 3107 3109 3112 3118 3121 3125 3131 3137 3142 3146 3143 3143 3142 3144 3149 3149 3155 3159 3161 3163 3164 3166 3167 3162
3087 3084 3082 3080 3080 3080 3083 3086 3082 3084 3083 3084 3085 3086 3087 3088 3089 3091 3094 3097 3099 3100 3105 3104 3110 3116 3122 3127 3133 3136 3137 3144 3143 3140 3139 3138 3147 3151 3153 3156 3159 3160 3162 3160 3157
3084 3082 3080 3078 3078 3079 3082 3082 3081 3080 3080 3082 3084 3084 3084 3086 3088 3089 3091 3093 3096 3094 3100 3103 3106 3111 3117 3123 3126 3128 3137 3139 3138 3136 3134 3139 3142 3143 3147 3152 3156 3160 3159 3156 3153
3081 3079 3078 3077 3077 3078 3080 3080 3078 3078 3079 3083 3083 3083 3084 3085 3085 3087 3089 3089 3090 3093 3098 3103 3104 3107 3112 3113 3117 3124 3126 3129 3133 3134 3131 3133 3134 3142 3146 3149 3152 3153 3155 3152 3149
3077 3079 3075 3074 3078 3076 3077 3075 3074 3077 3077 3079 3080 3082 3083 3083 3085 3086 3086 3086 3087 3091 3097 3099 3102 3101 3106 3111 3114 3117 3121 3125 3124 3128 3129 3131 3131 3137 3141 3145 3148 3150 3148 3149 3148
3074 3073 3073 3073 3077 3076 3074 3074 3073 3075 3076 3078 3079 3079 3079 3082 3084 3084 3085 3084 3086 3089 3092 3095 3099 3100 3102 3107 3110 3111 3115 3119 3123 3126 3122 3128 3131 3135 3139 3143 3144 3143 3144 3146 3146
3073 3075 3072 3070 3071 3072 3073 3073 3074 3072 3074 3074 3076 3077 3079 3081 3081 3083 3084 3084 3085 3087 3089 3092 3096 3096 3096 3097 3104 3109 3111 3114 3117 3117 3121 3121 3128 3131 3134 3137 3140 3142 3143 3143 3143
3071 3071 3069 3072 3070 3068 3069 3071 3072 3072 3072 3073 3075 3077 3078 3080 3081 3083 3084 3085 3086 3087 3089 3092 3094 3096 3097 3097 3099 3102 3106 3110 3112 3115 3115 3120 3123 3128 3130 3132 3131 3132 3137 3138 3138
3070 3069 3066 3066 3064 3065 3065 3066 3068 3069 3071 3072 3073 3074 3076 3079 3081 3082 3084 3085 3086 3088 3089 3090 3094 3094 3096 3097 3099 3102 3104 3106 3109 3111 3113 3117 3118 3123 3123 3124 3127 3128 3130 3132 3133
3069 3066 3065 3063 3062 3062 3061 3061 3061 3063 3067 3068 3069 3073 3075 3075 3077 3079 3080 3082 3083 3086 3088 3091 3092 3094 3093 3096 3099 3100 3100 3102 3105 3108 3111 3113 3118 3115 3116 3119 3121 3123 3122 3125 3127